DW7214 Weather Reports


Display with metric or nautical units.
time (UTC)temp
F
wind
direction
speed
MPH
gust
MPH
rain 1hr
in
rain 24hr
in
rain mn
in
humidity
%
barometer
mb
20191016042745 58 180 1.0 0.0 0.00 0.00 0.00 53 1011.2
20191016042234 57 180 0.0 0.0 0.00 0.00 0.00 54 1011.2
20191016041746 57 180 1.0 0.0 0.00 0.00 0.00 58 1011.4
20191016041238 57 181 1.0 0.0 0.00 0.00 0.00 57 1011.4
20191016040759 56 208 0.0 0.0 0.00 0.00 0.00 60 1011.4
20191016040239 57 208 0.0 0.0 0.00 0.00 0.00 60 1011.9
20191016035748 57 208 0.0 0.0 0.00 0.00 0.00 60 1011.9
20191016035236 57 208 0.0 0.0 0.00 0.00 0.00 60 1011.9
20191016034748 57 208 0.0 0.0 0.00 0.00 0.00 59 1011.8
20191016034234 57 208 0.0 0.0 0.00 0.00 0.00 59 1011.8
20191016033742 56 208 0.0 0.0 0.00 0.00 0.00 58 1011.8
20191016033253 56 208 0.0 0.0 0.00 0.00 0.00 56 1011.8
20191016032739 55 208 0.0 0.0 0.00 0.00 0.00 58 1011.8
20191016032248 55 208 0.0 0.0 0.00 0.00 0.00 59 1011.8
20191016031737 55 208 0.0 0.0 0.00 0.00 0.00 58 1011.9
20191016031253 55 208 0.0 0.0 0.00 0.00 0.00 59 1011.9
20191016030806 55 208 0.0 0.0 0.00 0.00 0.00 60 1011.9
20191016030247 55 208 0.0 0.0 0.00 0.00 0.00 58 1011.9
20191016025733 55 208 0.0 0.0 0.00 0.00 0.00 57 1011.9
20191016025245 55 208 0.0 0.0 0.00 0.00 0.00 54 1011.9
20191016024738 56 208 0.0 0.0 0.00 0.00 0.00 54 1011.9
20191016024249 56 208 0.0 0.0 0.00 0.00 0.00 54 1011.9
20191016023737 56 208 0.0 0.0 0.00 0.00 0.00 54 1011.9
20191016023247 56 208 0.0 0.0 0.00 0.00 0.00 55 1011.9
20191016022733 56 208 0.0 0.0 0.00 0.00 0.00 54 1011.9
20191016022249 56 208 0.0 0.0 0.00 0.00 0.00 53 1011.9
20191016021738 56 208 0.0 0.0 0.00 0.00 0.00 52 1012.0
20191016021248 56 208 0.0 0.0 0.00 0.00 0.00 52 1012.0
20191016020804 57 208 0.0 0.0 0.00 0.00 0.00 53 1012.0
20191016020246 57 208 0.0 0.0 0.00 0.00 0.00 55 1012.3
20191016015738 57 208 0.0 0.0 0.00 0.00 0.00 55 1012.3
20191016015250 57 208 0.0 0.0 0.00 0.00 0.00 55 1012.3
20191016014742 57 208 0.0 0.0 0.00 0.00 0.00 55 1012.0
20191016014251 57 208 0.0 0.0 0.00 0.00 0.00 54 1012.0
20191016013742 57 208 0.0 0.0 0.00 0.00 0.00 53 1012.0
20191016013237 57 208 0.0 0.0 0.00 0.00 0.00 54 1012.3
20191016012749 57 208 0.0 0.0 0.00 0.00 0.00 54 1012.3
20191016012238 58 208 0.0 0.0 0.00 0.00 0.00 54 1012.3
20191016011743 58 208 0.0 0.0 0.00 0.00 0.00 55 1012.3
20191016011249 58 208 0.0 0.0 0.00 0.00 0.00 55 1012.3
20191016010806 58 208 0.0 0.0 0.00 0.00 0.00 53 1012.3
20191016010246 58 208 0.0 0.0 0.00 0.00 0.00 52 1012.4
20191016005738 58 208 0.0 0.0 0.00 0.00 0.00 49 1012.4
20191016005243 58 208 0.0 0.0 0.00 0.00 0.00 49 1012.4
20191016004749 58 208 0.0 0.0 0.00 0.00 0.00 48 1012.5
20191016004239 58 208 0.0 0.0 0.00 0.00 0.00 45 1012.5
20191016003746 58 208 0.0 0.0 0.00 0.00 0.00 45 1012.5
20191016003234 58 208 0.0 0.0 0.00 0.00 0.00 44 1012.8
20191016002743 58 208 0.0 0.0 0.00 0.00 0.00 43 1012.8
20191016002235 58 208 0.0 0.0 0.00 0.00 0.00 44 1012.8
20191016001744 58 208 0.0 0.0 0.00 0.00 0.00 44 1013.1
20191016001236 58 208 0.0 0.0 0.00 0.00 0.00 46 1013.1
20191016000752 58 208 0.0 0.0 0.00 0.00 0.00 48 1013.1
20191016000236 58 208 0.0 0.0 0.00 0.00 0.00 51 1013.3
20191015235732 59 208 0.0 0.0 0.00 0.00 0.00 55 1013.3
20191015235244 59 208 0.0 0.0 0.00 0.00 0.00 55 1013.3
20191015234750 59 208 0.0 0.0 0.00 0.00 0.00 54 1013.4
20191015234239 59 208 0.0 0.0 0.00 0.00 0.00 55 1013.4
20191015233746 59 208 0.0 0.0 0.00 0.00 0.00 55 1013.4
20191015233252 59 208 0.0 0.0 0.00 0.00 0.00 56 1013.5
20191015232743 59 208 0.0 0.0 0.00 0.00 0.00 57 1013.5
20191015232247 59 208 1.0 0.0 0.00 0.00 0.00 58 1013.5
20191015231736 59 208 1.0 0.0 0.00 0.00 0.00 60 1013.4
20191015231245 59 208 1.0 0.0 0.00 0.00 0.00 60 1013.4
20191015230802 59 209 0.0 0.0 0.00 0.00 0.00 60 1013.4
20191015230239 59 209 2.0 0.0 0.00 0.00 0.00 60 1013.4
20191015225751 59 209 3.0 0.0 0.00 0.00 0.00 60 1013.4
20191015225237 59 200 1.0 0.0 0.00 0.00 0.00 60 1013.4
20191015224746 59 189 1.0 0.0 0.00 0.00 0.00 60 1013.4
20191015224237 59 223 2.0 0.0 0.00 0.00 0.00 60 1013.4
20191015223739 59 223 4.0 0.0 0.00 0.00 0.00 60 1013.4
20191015223248 59 215 3.0 0.0 0.00 0.00 0.00 60 1013.4
20191015222737 59 196 2.0 0.0 0.00 0.00 0.00 60 1013.4
20191015222246 59 226 1.0 0.0 0.00 0.00 0.00 60 1013.4
20191015221755 59 203 0.0 0.0 0.00 0.00 0.00 60 1013.3
20191015221246 59 203 1.0 0.0 0.00 0.00 0.00 60 1013.3
20191015220806 59 202 3.0 0.0 0.00 0.00 0.00 60 1013.3
20191015220243 59 203 3.0 0.0 0.00 0.00 0.00 60 1013.4
20191015215749 59 202 2.0 0.0 0.00 0.00 0.00 60 1013.4
20191015215255 59 220 2.0 0.0 0.00 0.00 0.00 60 1013.4
20191015214741 59 231 3.0 0.0 0.00 0.00 0.00 60 1013.6
20191015213738 59 200 3.0 0.0 0.00 0.00 0.00 60 1013.6
20191015213254 59 207 2.0 0.0 0.00 0.00 0.00 60 1013.8
20191015212741 59 194 2.0 0.0 0.00 0.00 0.00 60 1013.8
20191015212234 59 189 4.0 0.0 0.00 0.00 0.00 60 1013.8
20191015211743 59 209 3.0 0.0 0.00 0.00 0.00 59 1013.9
20191015211252 59 221 2.0 0.0 0.00 0.00 0.00 60 1013.9
20191015210746 59 223 1.0 0.0 0.00 0.00 0.00 60 1013.9
20191015210246 58 227 1.0 0.0 0.00 0.00 0.00 60 1014.0
20191015205752 58 227 1.0 0.0 0.00 0.00 0.00 59 1014.0
20191015205241 58 262 1.0 0.0 0.00 0.00 0.00 56 1014.0
20191015204750 58 264 0.0 0.0 0.00 0.00 0.00 50 1014.3
20191015204242 58 264 0.0 0.0 0.00 0.00 0.00 46 1014.3
20191015203748 58 264 0.0 0.0 0.00 0.00 0.00 33 1014.3
20191015203242 58 264 0.0 0.0 0.00 0.00 0.00 34 1014.5
20191015202751 57 264 0.0 0.0 0.00 0.00 0.00 33 1014.4
20191015202239 57 264 0.0 0.0 0.00 0.00 0.00 35 1014.4
20191015201748 57 264 0.0 0.0 0.00 0.00 0.00 34 1014.6
20191015201237 57 264 0.0 0.0 0.00 0.00 0.00 33 1014.6
20191015200757 57 262 0.0 0.0 0.00 0.00 0.00 37 1014.6
20191015200251 57 262 0.0 0.0 0.00 0.00 0.00 31 1014.9
20191015195740 57 263 0.0 0.0 0.00 0.00 0.00 27 1014.9
20191015195246 57 263 0.0 0.0 0.00 0.00 0.00 26 1014.9
20191015194752 56 264 0.0 0.0 0.00 0.00 0.00 23 1015.0
20191015194238 56 209 0.0 0.0 0.00 0.00 0.00 21 1015.0
20191015193748 55 209 0.0 0.0 0.00 0.00 0.00 20 1015.0
20191015193242 55 209 0.0 0.0 0.00 0.00 0.00 16 1015.0
20191015192734 55 209 0.0 0.0 0.00 0.00 0.00 9 1015.0
20191015192243 55 209 0.0 0.0 0.00 0.00 0.00 11 1015.0
20191015191755 55 209 0.0 0.0 0.00 0.00 0.00 5 1015.1
20191015191241 54 209 0.0 0.0 0.00 0.00 0.00 100 1015.0
20191015190756 54 209 0.0 0.0 0.00 0.00 0.00 100 1015.0
20191015190237 53 209 0.0 0.0 0.00 0.00 0.00 100 1015.0
20191015185746 53 209 0.0 0.0 0.00 0.00 0.00 100 1015.0
20191015185252 52 209 0.0 0.0 0.00 0.00 0.00 100 1015.0
20191015184742 52 209 0.0 0.0 0.00 0.00 0.00 100 1014.8
20191015184254 51 209 0.0 0.0 0.00 0.00 0.00 100 1014.8
20191015183738 50 209 0.0 0.0 0.00 0.00 0.00 100 1014.8
20191015183251 49 209 0.0 0.0 0.00 0.00 0.00 100 1015.1
20191015182737 49 209 1.0 0.0 0.00 0.00 0.00 100 1015.1
20191015182246 49 209 1.0 0.0 0.00 0.00 0.00 100 1015.1
20191015181755 49 209 1.0 0.0 0.00 0.00 0.00 100 1015.0
20191015181241 48 210 0.0 0.0 0.00 0.00 0.00 100 1015.0
20191015180757 48 210 0.0 0.0 0.00 0.00 0.00 100 1015.0
20191015180250 48 210 0.0 0.0 0.00 0.00 0.00 100 1014.8
20191015175735 48 210 0.0 0.0 0.00 0.00 0.00 100 1014.8
20191015175231 47 210 0.0 0.0 0.00 0.00 0.00 100 1014.8
20191015174743 47 210 0.0 0.0 0.00 0.00 0.00 100 1014.9
20191015174235 47 210 1.0 0.0 0.00 0.00 0.00 100 1014.9
20191015173746 46 210 1.0 0.0 0.00 0.00 0.00 100 1014.8
20191015173240 46 210 2.0 0.0 0.00 0.00 0.00 100 1014.5
20191015172732 46 210 2.0 0.0 0.00 0.00 0.00 100 1014.5
20191015172245 46 211 1.0 0.0 0.00 0.00 0.00 100 1014.5
20191015171737 46 211 0.0 0.0 0.00 0.00 0.00 100 1014.4
20191015171246 45 211 0.0 0.0 0.00 0.00 0.00 100 1014.4
20191015170749 45 211 0.0 0.0 0.00 0.00 0.00 100 1014.4
20191015170249 45 211 1.0 0.0 0.00 0.00 0.00 100 1014.5
20191015165735 45 200 1.0 0.0 0.00 0.00 0.00 100 1014.5
20191015165244 44 200 1.0 0.0 0.00 0.00 0.00 100 1014.5
20191015164750 44 199 2.0 0.0 0.00 0.00 0.00 100 1014.4
20191015164239 44 185 1.0 0.0 0.00 0.00 0.00 100 1014.4
20191015163745 43 161 1.0 0.0 0.00 0.00 0.00 100 1014.3
20191015163232 43 155 1.0 0.0 0.00 0.00 0.00 100 1014.0
20191015162744 43 157 1.0 0.0 0.00 0.00 0.00 100 1014.0
20191015162250 43 157 2.0 0.0 0.00 0.00 0.00 100 1014.0
20191015161740 43 157 2.0 0.0 0.00 0.00 0.00 100 1013.8
20191015161246 43 146 1.0 0.0 0.00 0.00 0.00 100 1013.8
20191015160759 43 84 0.0 0.0 0.00 0.00 0.00 100 1013.8
20191015160253 43 84 0.0 0.0 0.00 0.00 0.00 100 1013.5
20191015155742 42 84 0.0 0.0 0.00 0.00 0.00 100 1013.5
20191015155254 42 84 0.0 0.0 0.00 0.00 0.00 100 1013.5
20191015154740 42 84 0.0 0.0 0.00 0.00 0.00 100 1013.5
20191015154249 42 84 0.0 0.0 0.00 0.00 0.00 100 1013.5
20191015153734 42 84 1.0 0.0 0.00 0.00 0.00 100 1013.5
20191015153246 41 84 0.0 0.0 0.00 0.00 0.00 100 1013.4
20191015152735 41 84 0.0 0.0 0.00 0.00 0.00 100 1013.4
20191015152248 41 84 0.0 0.0 0.00 0.00 0.00 100 1013.4
20191015151736 41 84 0.0 0.0 0.00 0.00 0.00 100 1013.2
20191015151244 41 84 0.0 0.0 0.00 0.00 0.00 100 1013.2
20191015150801 41 84 0.0 0.0 0.00 0.00 0.00 100 1013.2
20191015150243 41 84 0.0 0.0 0.00 0.00 0.00 100 1013.1
20191015145752 41 84 0.0 0.0 0.00 0.00 0.00 100 1013.1
20191015145241 40 84 0.0 0.0 0.00 0.00 0.00 100 1013.1
20191015144747 40 84 0.0 0.0 0.00 0.00 0.00 100 1013.0
20191015144253 40 84 0.0 0.0 0.00 0.00 0.00 100 1013.0
20191015143739 40 84 0.0 0.0 0.00 0.00 0.00 100 1013.0
20191015143231 41 84 0.0 0.0 0.00 0.00 0.00 100 1012.9
20191015142743 41 84 0.0 0.0 0.00 0.00 0.00 100 1012.9
20191015142252 42 84 0.0 0.0 0.00 0.00 0.00 100 1012.9
20191015141742 43 84 0.0 0.0 0.00 0.00 0.00 100 1012.9
20191015141247 44 84 0.0 0.0 0.00 0.00 0.00 100 1012.9
20191015140806 45 84 0.0 0.0 0.00 0.00 0.00 100 1012.9
20191015140244 45 84 0.0 0.0 0.00 0.00 0.00 100 1012.9
20191015135750 44 84 0.0 0.0 0.00 0.00 0.00 100 1012.8
20191015135256 44 84 0.0 0.0 0.00 0.00 0.00 100 1012.8
20191015134742 44 84 0.0 0.0 0.00 0.00 0.00 100 1012.8
20191015134235 44 84 0.0 0.0 0.00 0.00 0.00 100 1012.8
20191015133744 43 84 0.0 0.0 0.00 0.00 0.00 100 1012.8
20191015133249 44 84 0.0 0.0 0.00 0.00 0.00 100 1012.8
20191015132735 44 84 0.0 0.0 0.00 0.00 0.00 100 1012.8
20191015132244 45 84 0.0 0.0 0.00 0.00 0.00 100 1012.8
20191015131239 45 84 0.0 0.0 0.00 0.00 0.00 100 1012.7
20191015130800 45 84 0.0 0.0 0.00 0.00 0.00 100 1012.7
20191015130235 45 84 0.0 0.0 0.00 0.00 0.00 100 1012.6
20191015125744 45 84 0.0 0.0 0.00 0.00 0.00 100 1012.6
20191015125253 45 84 0.0 0.0 0.00 0.00 0.00 100 1012.6
20191015124743 45 84 0.0 0.0 0.00 0.00 0.00 100 1012.5
20191015124252 45 84 0.0 0.0 0.00 0.00 0.00 100 1012.5
20191015123755 45 84 1.0 0.0 0.00 0.00 0.00 100 1012.5
20191015123241 45 84 1.0 0.0 0.00 0.00 0.00 100 1012.5
20191015122749 45 84 0.0 0.0 0.00 0.00 0.00 100 1012.5
20191015122239 44 84 0.0 0.0 0.00 0.00 0.00 100 1012.5
20191015121748 44 84 0.0 0.0 0.00 0.00 0.00 100 1012.5
20191015121239 43 84 0.0 0.0 0.00 0.00 0.00 100 1012.4
20191015120754 43 84 0.0 0.0 0.00 0.00 0.00 100 1012.4
20191015120253 43 84 0.0 0.0 0.00 0.00 0.00 100 1012.7
20191015115742 43 84 0.0 0.0 0.00 0.00 0.00 100 1012.7
20191015115252 43 84 0.0 0.0 0.00 0.00 0.00 100 1012.7
20191015114741 43 84 0.0 0.0 0.00 0.00 0.00 100 1012.7
20191015114251 43 84 0.0 0.0 0.00 0.00 0.00 100 1012.7
20191015113740 43 84 0.0 0.0 0.00 0.00 0.00 100 1012.7
20191015113251 43 84 0.0 0.0 0.00 0.00 0.00 100 1012.8
20191015112736 43 84 0.0 0.0 0.00 0.00 0.00 100 1012.8
20191015112246 44 84 0.0 0.0 0.00 0.00 0.00 100 1012.8
20191015111752 44 84 0.0 0.0 0.00 0.00 0.00 100 1012.6
20191015111241 44 84 0.0 0.0 0.00 0.00 0.00 100 1012.6
20191015110758 44 84 0.0 0.0 0.00 0.00 0.00 100 1012.6
20191015110236 44 84 0.0 0.0 0.00 0.00 0.00 100 1012.4
20191015105748 45 84 0.0 0.0 0.00 0.00 0.00 100 1012.4
20191015105235 45 84 0.0 0.0 0.00 0.00 0.00 7 1012.4
20191015104746 46 84 0.0 0.0 0.00 0.00 0.00 11 1012.4
20191015104253 47 84 0.0 0.0 0.00 0.00 0.00 10 1012.4
20191015103736 47 84 1.0 0.0 0.00 0.00 0.00 4 1012.4
20191015103249 47 84 1.0 0.0 0.00 0.00 0.00 100 1012.5
20191015102754 46 84 2.0 0.0 0.00 0.00 0.00 100 1012.5
20191015102238 46 84 2.0 0.0 0.00 0.00 0.00 100 1012.5
20191015101745 46 84 2.0 0.0 0.00 0.00 0.00 2 1012.5
20191015101241 46 84 3.0 0.0 0.00 0.00 0.00 5 1012.5
20191015100758 46 85 2.0 0.0 0.00 0.00 0.00 11 1012.5
20191015100253 46 85 0.0 0.0 0.00 0.00 0.00 19 1012.5
20191015095739 46 85 0.0 0.0 0.00 0.00 0.00 24 1012.5
20191015095245 47 85 0.0 0.0 0.00 0.00 0.00 31 1012.5
20191015094750 47 85 0.0 0.0 0.00 0.00 0.00 38 1012.8
20191015094239 48 85 0.0 0.0 0.00 0.00 0.00 44 1012.8
20191015093748 49 85 0.0 0.0 0.00 0.00 0.00 42 1012.8
20191015093240 49 85 1.0 0.0 0.00 0.00 0.00 38 1012.6
20191015092731 48 85 2.0 0.0 0.00 0.00 0.00 34 1012.6
20191015092242 48 85 2.0 0.0 0.00 0.00 0.00 30 1012.6
20191015091245 48 85 0.0 0.0 0.00 0.00 0.00 100 1012.8
20191015090804 47 85 0.0 0.0 0.00 0.00 0.00 100 1012.8
20191015090237 46 85 0.0 0.0 0.00 0.00 0.00 100 1012.9
20191015085747 46 85 0.0 0.0 0.00 0.00 0.00 100 1012.9
20191015085236 46 85 0.0 0.0 0.00 0.00 0.00 100 1012.9
20191015084747 46 85 0.0 0.0 0.00 0.00 0.00 100 1013.1
20191015084236 46 85 0.0 0.0 0.00 0.00 0.00 100 1013.1
20191015083744 46 85 0.0 0.0 0.00 0.00 0.00 1 1013.1
20191015083237 46 85 0.0 0.0 0.00 0.00 0.00 4 1013.1
20191015082749 46 85 0.0 0.0 0.00 0.00 0.00 4 1013.1
20191015082236 46 85 0.0 0.0 0.00 0.00 0.00 7 1013.1
20191015081745 46 85 0.0 0.0 0.00 0.00 0.00 10 1013.1
20191015081230 46 85 0.0 0.0 0.00 0.00 0.00 15 1013.1
20191015080750 47 85 0.0 0.0 0.00 0.00 0.00 19 1013.1
20191015080232 47 85 0.0 0.0 0.00 0.00 0.00 17 1013.2
20191015075744 47 85 0.0 0.0 0.00 0.00 0.00 18 1013.2
20191015075232 47 85 0.0 0.0 0.00 0.00 0.00 18 1013.2
20191015074745 47 85 0.0 0.0 0.00 0.00 0.00 19 1013.4
20191015074238 47 85 0.0 0.0 0.00 0.00 0.00 24 1013.4
20191015073749 47 85 0.0 0.0 0.00 0.00 0.00 31 1013.4
20191015073243 47 85 0.0 0.0 0.00 0.00 0.00 33 1013.3
20191015072736 48 85 0.0 0.0 0.00 0.00 0.00 38 1013.3
20191015072248 48 85 0.0 0.0 0.00 0.00 0.00 38 1013.3
20191015071740 48 85 0.0 0.0 0.00 0.00 0.00 39 1013.4
20191015071231 48 85 0.0 0.0 0.00 0.00 0.00 39 1013.4
20191015070754 48 85 0.0 0.0 0.00 0.00 0.00 39 1013.4
20191015070252 48 85 0.0 0.0 0.00 0.00 0.00 41 1013.4
20191015065741 48 85 0.0 0.0 0.00 0.00 0.00 40 1013.4
20191015065237 48 85 0.0 0.0 0.00 0.00 0.00 41 1013.4
20191015064744 48 85 0.0 0.0 0.00 0.00 0.00 42 1013.4
20191015064232 48 85 0.0 0.0 0.00 0.00 0.00 44 1013.4
20191015063742 48 85 0.0 0.0 0.00 0.00 0.00 44 1013.4
20191015063235 48 85 0.0 0.0 0.00 0.00 0.00 46 1013.4
20191015062746 48 85 0.0 0.0 0.00 0.00 0.00 49 1013.4
20191015062239 48 85 0.0 0.0 0.00 0.00 0.00 49 1013.4
20191015061750 49 85 0.0 0.0 0.00 0.00 0.00 50 1013.6
20191015061252 49 85 0.0 0.0 0.00 0.00 0.00 51 1013.6
20191015060805 49 85 0.0 0.0 0.00 0.00 0.00 53 1013.6
20191015060245 49 85 0.0 0.0 0.00 0.00 0.00 54 1013.9
20191015055736 49 85 0.0 0.0 0.00 0.00 0.00 55 1013.9
20191015055243 49 85 0.0 0.0 0.00 0.00 0.00 56 1013.9
20191015054748 49 85 0.0 0.0 0.00 0.00 0.00 57 1013.6
20191015054234 50 85 0.0 0.0 0.00 0.00 0.00 58 1013.7
20191015053742 50 85 0.0 0.0 0.00 0.00 0.00 59 1013.7
20191015053232 50 85 0.0 0.0 0.00 0.00 0.00 59 1013.7
20191015052744 50 85 0.0 0.0 0.00 0.00 0.00 60 1013.7
20191015052234 51 85 0.0 0.0 0.00 0.00 0.00 60 1013.7
20191015051742 51 85 0.0 0.0 0.00 0.00 0.00 61 1013.7
20191015051232 51 85 0.0 0.0 0.00 0.00 0.00 61 1013.7
20191015050752 52 85 0.0 0.0 0.00 0.00 0.00 61 1013.8
20191015050250 52 85 0.0 0.0 0.00 0.00 0.00 62 1013.8
20191015045739 52 85 0.0 0.0 0.00 0.00 0.00 62 1013.8
20191015045248 53 85 0.0 0.0 0.00 0.00 0.00 62 1013.8
20191015044735 53 85 0.0 0.0 0.00 0.00 0.00 62 1013.6
20191015044243 53 85 0.0 0.0 0.00 0.00 0.00 62 1013.6
20191015043751 53 85 0.0 0.0 0.00 0.00 0.00 62 1013.6
20191015043242 53 85 0.0 0.0 0.00 0.00 0.00 62 1013.7